Simultaneous Nadir Overpasses (SNOs) Predictions

Prediction of SNOs between GOES-16 and METOP-C Satellite Orbit:

Table of predicted SNOs for the next 14.0 days since TLE Epoch: 11/16/2019
Index Date Time (GOES-16) GOES-16 Lat,Lon METOP-C Lat,Lon Distance(km) Time Diff (sec)
1 11/17/2019 02:30:15 -0.01, -75.19 -0.05, -75.24 7.05 80
2 11/19/2019 14:31:06 0.03, -75.21 -0.03, -74.81 45.40 80
3 11/21/2019 02:50:06 -0.03, -75.20 -0.97, -79.41 479.08 80
4 11/22/2019 02:26:46 -0.04, -75.21 0.15, -74.42 90.82 80
5 11/23/2019 14:45:38 0.04, -75.24 0.90, -78.97 426.03 80
6 11/24/2019 14:27:38 0.04, -75.25 -0.24, -73.98 144.26 80
7 11/26/2019 02:46:37 -0.03, -75.25 -0.77, -78.58 379.20 80
8 11/27/2019 02:25:58 -0.03, -75.26 0.35, -73.59 191.33 80
9 11/28/2019 14:42:09 0.04, -75.30 0.69, -78.14 324.62 80
10 11/29/2019 14:24:10 0.04, -75.31 -0.44, -73.15 246.38 80




NCC Satellite Simultaneous Nadir Overpasses (SNOs) Prediction Service
